Weather History for Ketchikan, AK

Change the Weather History Date:

Wednesday, February 20, 2013

  Actual Average Record
Temperature  
Mean Temperature 38 °F -  
Max Temperature 43 °F 43 °F 57 °F (1977)
Min Temperature 34 °F 32 °F 20 °F (1992)
Degree Days  
Heating Degree Days 26    
Moisture  
Dew Point 37 °F    
Average Humidity 96    
Maximum Humidity 100    
Minimum Humidity 76    
Precipitation  
Precipitation 1.36 in - - ()
Sea Level Pressure  
Sea Level Pressure 29.61 in    
Wind  
Wind Speed 13 mph (SE)    
Max Wind Speed 20 mph    
Max Gust Speed 28 mph    
Visibility 8 miles    
Events Rain , Snow    
Averages and records for this station are not official NWS values.
T = Trace of Precipitation, MM = Missing Value Source: NWS Daily Summary

Daily Weather History Graph

Daily Weather History Graph

Search for Another Location

Airport:

Trip Planner

Search our weather history database for the weather conditions in past years. The results will help you decide how hot, cold, wet, or windy it might be!

Date:

Astronomy

Feb. 20, 2013 Rise Set
Actual Time 6:57 AM AKST 5:04 PM AKST
Civil Twilight 6:20 AM AKST 5:41 PM AKST
Nautical Twilight 5:37 AM AKST 6:24 PM AKST
Astronomical Twilight 4:55 AM AKST 7:06 PM AKST
Moon 11:59 AM AKST (2/20) 3:56 AM AKST (2/20)
Length of Visible Light 11h 21m
Length of Day
10h 06m
Waxing Gibbous, 77% of the Moon is Illuminated
Feb 20
Waxing Gibbous
Feb 25
Full
Mar 4
Last Quarter
Mar 11
New
Mar 19
First Quarter

Hourly Weather History & Observations

Time (AKST) Temp. Windchill Dew Point Humidity Pressure Visibility Wind Dir Wind Speed Gust Speed Precip Events Conditions
12:53 AM 39.0 °F 31.4 °F 37.9 °F 96% 29.71 in 10.0 mi SSE 12.7 mph 21.9 mph 0.00 in Rain Light Rain
1:19 AM 39.2 °F 30.8 °F 39.2 °F 100% 29.71 in 7.0 mi SE 15.0 mph 21.9 mph 0.05 in Rain Rain
1:53 AM 39.0 °F 30.3 °F 39.0 °F 100% 29.70 in 9.0 mi SE 16.1 mph 27.6 mph 0.12 in Rain Light Rain
2:50 AM 39.2 °F 30.5 °F 37.4 °F 93% 29.66 in 10.0 mi SE 16.1 mph 25.3 mph 0.01 in Rain Light Rain
3:53 AM 37.9 °F 27.9 °F 37.0 °F 97% 29.65 in 9.0 mi SE 19.6 mph - 0.05 in Rain Light Rain
4:23 AM 37.4 °F 29.8 °F 37.4 °F 100% 29.65 in 7.0 mi SSE 11.5 mph - 0.08 in Rain Rain
4:53 AM 37.0 °F 28.5 °F 37.0 °F 100% 29.65 in 6.0 mi SE 13.8 mph 25.3 mph 0.15 in Rain Rain
5:14 AM 37.4 °F 27.2 °F 37.4 °F 100% 29.65 in 6.0 mi SE 19.6 mph 26.5 mph 0.04 in Rain Rain
5:53 AM 37.9 °F 28.9 °F 37.9 °F 100% 29.64 in 5.0 mi SE 16.1 mph 21.9 mph 0.13 in Rain Rain
6:05 AM 37.4 °F 29.3 °F 35.6 °F 93% 29.64 in 5.0 mi SE 12.7 mph 20.7 mph 0.04 in Rain Rain
6:53 AM 36.0 °F 26.3 °F 36.0 °F 100% 29.64 in 4.0 mi SSE 16.1 mph 21.9 mph 0.20 in Rain Rain
7:53 AM 36.0 °F 33.3 °F 36.0 °F 100% 29.66 in 7.0 mi SSW 3.5 mph - 0.09 in Rain Light Rain
7:56 AM 35.6 °F 32.8 °F 35.6 °F 100% 29.65 in 8.0 mi South 3.5 mph - 0.00 in Rain Light Rain
8:53 AM 37.0 °F 33.3 °F 37.0 °F 100% 29.68 in 10.0 mi ESE 4.6 mph - 0.00 in   Mostly Cloudy
9:53 AM 37.9 °F 32.7 °F 37.9 °F 100% 29.69 in 10.0 mi SE 6.9 mph - N/A   Mostly Cloudy
10:53 AM 41.0 °F 35.8 °F 39.0 °F 93% 29.71 in 10.0 mi SE 8.1 mph - N/A   Overcast
11:53 AM 43.0 °F 36.8 °F 36.0 °F 76% 29.70 in 10.0 mi SE 11.5 mph - N/A   Scattered Clouds
12:51 PM 42.8 °F 38.0 °F 35.6 °F 76% 29.68 in 10.0 mi SSE 8.1 mph - 0.00 in Rain Light Rain
12:53 PM 42.1 °F 37.7 °F 35.1 °F 76% 29.68 in 10.0 mi SE 6.9 mph - 0.00 in   Overcast
1:53 PM 41.0 °F 35.8 °F 39.0 °F 93% 29.68 in 10.0 mi SE 8.1 mph - 0.02 in   Overcast
2:53 PM 39.0 °F 34.8 °F 37.0 °F 93% 29.66 in 10.0 mi SSE 5.8 mph - 0.00 in   Overcast
3:53 PM 39.0 °F 33.4 °F 35.1 °F 86% 29.63 in 9.0 mi SE 8.1 mph - 0.01 in Rain Light Rain
4:53 PM 36.0 °F 26.7 °F 36.0 °F 100% 29.60 in 4.0 mi SE 15.0 mph 18.4 mph 0.06 in Rain Light Rain
5:53 PM 34.0 °F 23.4 °F 34.0 °F 100% 29.57 in 1.5 mi ESE 17.3 mph - 0.04 in Snow Light Snow
6:17 PM 35.6 °F 25.9 °F 35.6 °F 100% 29.56 in 9.0 mi SE 16.1 mph - 0.00 in Rain Light Rain
6:24 PM 35.6 °F 25.9 °F 35.6 °F 100% 29.55 in 8.0 mi SE 16.1 mph 23.0 mph 0.00 in Rain Light Rain
6:53 PM 36.0 °F 26.0 °F 36.0 °F 100% 29.54 in 7.0 mi SE 17.3 mph 24.2 mph 0.04 in Rain Light Rain
7:53 PM 35.1 °F 25.9 °F 35.1 °F 100% 29.50 in 3.0 mi SSE 13.8 mph 21.9 mph 0.08 in Snow Light Snow
8:53 PM 35.1 °F 26.9 °F 35.1 °F 100% 29.47 in 4.0 mi SSE 11.5 mph 19.6 mph 0.11 in Snow Light Snow
9:53 PM 36.0 °F 27.5 °F 36.0 °F 100% 29.44 in 7.0 mi SSE 12.7 mph 24.2 mph 0.10 in Rain Light Rain
10:30 PM 37.4 °F 28.9 °F 37.4 °F 100% 29.42 in 8.0 mi SSE 13.8 mph 23.0 mph 0.04 in Rain Light Rain
10:38 PM 37.4 °F 29.8 °F 37.4 °F 100% 29.42 in 8.0 mi SSE 11.5 mph 20.7 mph 0.05 in Rain Light Rain
10:53 PM 37.0 °F 27.7 °F 36.0 °F 96% 29.42 in 6.0 mi SE 16.1 mph 24.2 mph 0.08 in Rain Rain
11:53 PM 37.0 °F 28.9 °F 36.0 °F 96% 29.40 in 10.0 mi SSE 12.7 mph - 0.08 in Rain Light Rain